Temp
60 59 60 60 59 57 56 57 59 58 56 55 54 53 51 50 49 48 47 48 47 45 46 47 47 48 47 47 47 47 47 47 48 53 54 55 53 54 55 56 58 57 58
59 59 59 60 59 57 56 55 55 53 53 52 52 51 50 49 47 46 46 46 45 45 46 46 47 52 47 48 50 49 50 51 49 46 51 53 52 55 55 56 57 60 59
59 55 55 56 55 55 54 52 52 52 50 50 50 48 48 47 46 45 45 45 44 45 46 46 47 49 51 49 48 48 48 49 48 46 46 50 51 52 52 54 54 55 58
57 55 52 52 53 51 52 50 50 51 49 48 47 47 47 46 45 45 45 43 44 46 47 49 49 50 46 45 45 44 46 44 45 44 44 46 48 50 51 49 49 52 52
55 52 51 51 53 51 49 49 49 49 48 48 46 45 45 46 45 43 43 43 43 45 47 49 49 49 48 47 45 44 43 43 42 42 42 43 43 45 44 47 45 47 49
52 50 52 50 49 48 47 46 46 45 45 45 44 44 43 47 44 46 46 41 42 43 43 44 45 48 47 46 46 46 46 42 41 41 41 40 42 44 45 44 44 43 43
51 52 50 49 47 47 47 45 44 43 44 43 43 44 45 43 43 43 47 41 41 41 41 41 45 47 45 43 44 45 46 46 46 43 41 41 41 43 44 43 43 44 44
49 48 48 47 46 45 44 43 41 42 43 42 44 44 45 42 43 42 44 40 40 41 42 41 44 43 43 42 41 42 43 44 44 45 43 43 44 45 45 45 45 45 46
47 47 47 46 45 44 42 40 39 40 41 44 44 45 42 38 42 42 40 39 40 40 43 42 44 43 42 42 41 41 41 42 47 47 46 45 44 44 46 47 47 45 44
45 44 44 43 41 39 39 38 38 38 38 45 45 45 43 41 42 41 41 38 37 39 42 46 45 42 41 41 40 40 39 41 42 44 45 47 48 49 49 50 48 45 45
44 43 42 40 38 37 36 36 35 35 36 37 42 43 42 41 41 41 41 37 36 38 43 42 44 42 40 40 41 42 39 41 43 43 43 45 47 48 50 50 49 48 46
42 40 38 37 40 37 35 35 35 34 34 34 37 40 42 41 42 42 41 42 43 39 40 44 43 40 40 40 41 40 41 43 43 41 42 43 44 45 49 49 50 49 50
39 37 37 37 36 35 34 33 35 33 33 32 35 37 37 40 41 42 41 42 43 41 43 42 41 40 39 40 41 41 42 41 40 38 39 41 44 47 50 48 50 51 50
38 36 36 35 35 35 35 33 33 32 33 31 31 31 31 36 38 41 42 40 41 44 44 42 41 40 40 39 38 40 41 39 38 37 39 42 45 48 47 47 47 47 48
36 36 35 34 33 33 32 32 32 32 32 30 30 30 31 33 37 40 39 39 41 41 42 40 36 35 34 34 34 35 37 38 37 37 38 40 42 47 47 46 46 46 44
36 35 34 33 32 33 33 34 40 39 40 40 40 36 36 38 39 39 39 40 39 39 40 36 33 32 30 30 30 31 34 36 35 36 38 40 41 45 46 46 45 44 43
34 34 36 37 33 33 38 38 38 41 42 40 40 40 39 38 38 38 39 40 39 40 37 35 34 31 29 29 30 30 30 33 36 36 37 39 40 44 46 46 45 44 43
36 39 34 34 34 36 39 39 36 36 34 37 39 38 39 39 39 39 39 40 38 38 36 34 33 32 29 28 29 28 29 32 33 35 37 38 40 43 44 45 45 43 42
37 34 33 33 33 34 33 32 31 30 30 30 33 36 37 38 39 38 39 36 35 34 34 33 32 31 29 28 28 28 29 29 31 34 36 37 40 41 44 44 45 41 40
36 38 35 33 33 32 32 32 31 30 30 30 32 30 31 36 35 35 35 35 34 33 33 31 30 30 29 28 27 27 27 28 29 31 33 36 39 41 42 44 44 44 44
35 34 37 33 32 32 31 31 30 30 30 29 29 33 32 32 32 34 34 34 32 32 31 30 30 29 28 27 27 26 26 27 28 29 32 34 38 40 42 45 44 44 43
35 33 34 32 32 33 30 30 30 30 30 29 29 33 33 33 32 31 34 35 34 33 31 30 29 28 27 26 26 26 27 26 27 27 29 33 37 39 41 45 44 44 43
36 35 34 31 32 33 31 30 29 29 29 29 29 31 31 30 30 30 34 35 34 33 32 31 29 27 28 28 28 27 26 27 28 28 28 31 34 36 40 42 44 43 42
35 34 32 31 31 29 29 29 29 31 29 29 29 29 28 28 28 30 31 34 34 34 33 30 30 28 27 28 28 28 27 29 29 28 29 31 32 33 37 40 41 43 42
33 32 31 30 30 29 28 29 28 29 29 29 29 29 28 28 28 30 31 32 33 32 32 31 30 30 29 28 28 28 28 28 29 29 29 31 31 33 34 36 37 40 42
32 31 30 29 29 28 28 28 28 28 28 28 28 27 27 28 28 28 28 29 30 31 31 31 30 30 29 29 29 28 27 27 28 29 29 30 30 30 32 34 36 38 40
MSLP
1008.55 1009.44 1009.82 1010.49 1011.33 1012.46 1013.19 1013.44 1013.34 1013.63 1014.11 1014.50 1014.81 1014.94 1015.11 1015.83 1015.75 1015.55 1015.48 1015.86 1015.78 1015.87 1015.70 1015.49 1014.94 1014.77 1014.42 1013.92 1013.32 1012.84 1012.31 1011.75 1010.44 1008.92 1008.70 1008.06 1007.29 1006.67 1006.20 1005.54 1004.85 1004.27 1003.50
1009.30 1010.12 1010.62 1011.07 1011.59 1012.18 1012.94 1013.49 1014.03 1014.55 1014.74 1014.99 1015.50 1015.76 1016.11 1016.18 1016.20 1016.14 1016.38 1016.44 1016.26 1015.97 1015.73 1015.46 1015.24 1014.59 1014.25 1013.60 1013.15 1012.70 1012.20 1011.64 1010.90 1009.45 1008.60 1007.61 1006.83 1006.34 1005.84 1005.23 1004.49 1003.66 1003.18
1010.18 1010.86 1011.82 1012.23 1012.72 1013.29 1013.75 1014.44 1014.77 1015.34 1015.76 1015.79 1015.93 1016.36 1016.67 1016.72 1016.80 1016.67 1016.84 1016.48 1016.28 1016.09 1015.95 1015.63 1015.05 1014.65 1014.06 1013.74 1013.42 1012.87 1012.29 1011.59 1010.98 1010.09 1008.66 1007.84 1007.06 1006.45 1005.51 1004.75 1004.11 1003.35 1002.62
1011.13 1012.15 1013.01 1013.42 1013.82 1014.31 1014.58 1015.02 1015.55 1015.77 1015.96 1016.40 1016.75 1016.89 1016.98 1016.94 1017.03 1017.12 1016.83 1016.84 1016.60 1016.50 1016.06 1015.64 1015.27 1014.80 1014.70 1014.31 1013.67 1013.05 1012.33 1011.72 1010.93 1010.02 1009.00 1008.02 1007.33 1006.25 1005.48 1004.68 1003.84 1003.37 1002.63
1011.91 1013.17 1013.96 1014.58 1014.83 1015.24 1015.50 1015.95 1016.06 1016.29 1016.81 1017.17 1017.31 1017.36 1017.38 1017.32 1017.49 1017.43 1017.50 1017.26 1017.02 1016.71 1016.38 1015.93 1015.58 1015.26 1015.04 1014.71 1014.02 1013.10 1012.42 1011.77 1010.96 1010.00 1009.06 1008.24 1007.25 1006.19 1005.60 1004.87 1004.15 1003.30 1002.50
1013.12 1014.05 1014.81 1015.41 1015.72 1016.03 1016.35 1016.62 1016.77 1017.15 1017.53 1017.77 1017.78 1017.73 1017.81 1018.08 1018.40 1018.10 1017.83 1017.46 1017.30 1017.05 1016.75 1016.29 1015.74 1015.28 1015.06 1014.53 1013.94 1013.33 1012.65 1011.88 1010.88 1010.05 1009.05 1008.33 1007.27 1006.53 1005.71 1005.05 1004.21 1003.25 1002.11
1014.34 1015.05 1015.66 1016.25 1016.60 1016.81 1016.92 1017.07 1017.47 1017.91 1018.13 1018.28 1018.40 1018.49 1018.84 1019.16 1018.87 1018.31 1018.11 1017.85 1017.60 1017.30 1016.88 1016.49 1015.95 1015.68 1015.03 1014.31 1013.64 1013.07 1012.22 1011.45 1010.77 1010.11 1009.19 1008.22 1007.43 1006.36 1005.67 1004.59 1003.82 1003.13 1002.23
1015.40 1016.21 1016.82 1017.20 1017.31 1017.42 1017.70 1018.14 1018.43 1018.58 1018.80 1019.13 1019.28 1019.34 1019.43 1019.42 1019.23 1019.10 1018.65 1018.25 1017.88 1017.36 1016.96 1016.68 1016.42 1015.83 1015.34 1014.62 1013.79 1012.85 1011.91 1011.06 1010.25 1009.70 1009.06 1007.97 1007.07 1005.97 1005.08 1004.26 1003.44 1002.60 1001.96
1016.62 1017.24 1017.76 1017.89 1018.11 1018.56 1018.92 1019.22 1019.43 1019.48 1019.55 1019.63 1019.75 1019.87 1019.92 1019.90 1019.94 1019.62 1019.02 1018.61 1018.01 1017.60 1017.30 1017.06 1016.61 1016.19 1015.54 1014.91 1014.15 1013.24 1011.98 1010.83 1009.86 1009.02 1008.24 1007.26 1006.30 1005.20 1004.37 1003.73 1003.12 1002.37 1001.66
1017.87 1018.30 1018.64 1019.01 1019.48 1019.81 1020.03 1020.20 1020.30 1020.32 1020.42 1020.26 1020.34 1020.38 1020.38 1020.34 1020.34 1020.03 1019.43 1018.89 1018.50 1018.16 1017.62 1017.09 1016.65 1016.41 1015.72 1015.06 1014.63 1013.83 1012.69 1011.69 1010.49 1008.85 1007.44 1006.46 1005.83 1004.99 1004.15 1003.56 1003.33 1002.61 1001.87
1018.73 1019.30 1019.74 1020.22 1020.58 1020.80 1020.92 1021.01 1021.08 1021.17 1021.19 1021.18 1020.87 1020.76 1020.79 1020.86 1020.61 1020.18 1019.63 1019.30 1019.24 1018.73 1018.09 1017.49 1017.09 1016.65 1015.98 1015.27 1014.88 1014.25 1013.71 1012.32 1010.79 1009.71 1008.58 1007.40 1006.29 1005.33 1004.29 1003.69 1003.37 1002.85 1002.22
1019.78 1020.30 1020.84 1021.15 1021.34 1021.63 1021.64 1021.83 1021.83 1021.86 1021.85 1021.89 1021.54 1021.43 1021.40 1021.27 1020.96 1020.43 1019.98 1019.64 1019.35 1019.12 1018.85 1018.24 1017.89 1017.26 1016.32 1015.52 1014.91 1014.22 1013.35 1012.23 1011.08 1010.13 1009.11 1007.93 1006.83 1005.69 1004.59 1004.00 1003.28 1002.81 1002.51
1020.75 1021.36 1021.80 1022.01 1022.22 1022.36 1022.34 1022.48 1022.55 1022.57 1022.63 1022.66 1022.55 1022.41 1022.27 1021.91 1021.42 1020.88 1020.62 1020.12 1019.61 1019.46 1019.38 1018.80 1018.33 1017.61 1016.76 1015.88 1015.32 1014.46 1013.67 1012.86 1012.11 1011.06 1010.04 1008.80 1007.65 1006.30 1005.22 1004.24 1003.42 1002.77 1002.40
1021.63 1022.12 1022.54 1022.60 1022.79 1022.94 1022.98 1023.14 1023.14 1023.27 1023.41 1023.44 1023.33 1023.31 1023.03 1022.62 1022.00 1021.59 1021.29 1020.56 1019.95 1019.68 1019.53 1019.05 1018.75 1018.25 1017.48 1016.90 1015.90 1015.25 1014.62 1014.16 1013.37 1012.28 1010.86 1009.52 1008.07 1006.57 1005.81 1005.10 1004.24 1003.46 1002.67
1022.28 1022.67 1023.04 1023.35 1023.56 1023.69 1023.68 1023.62 1023.74 1023.87 1023.87 1023.81 1023.90 1023.95 1023.70 1023.22 1022.81 1022.45 1022.01 1021.16 1020.60 1020.25 1019.88 1019.62 1019.21 1018.63 1018.17 1017.69 1017.04 1016.38 1015.53 1014.61 1013.73 1012.98 1011.80 1010.26 1008.82 1007.27 1006.54 1005.72 1005.05 1004.28 1003.80
1022.81 1023.37 1023.66 1023.82 1023.98 1024.01 1024.10 1024.15 1023.98 1023.98 1023.98 1023.98 1024.04 1023.99 1023.83 1023.55 1023.13 1022.67 1022.15 1021.62 1021.31 1020.91 1020.38 1020.55 1020.51 1020.35 1019.96 1019.49 1018.74 1017.85 1016.75 1015.75 1014.93 1013.91 1012.69 1011.43 1009.91 1008.26 1007.16 1006.54 1005.81 1005.20 1004.71
1023.23 1023.72 1024.07 1024.27 1024.48 1024.75 1024.79 1024.74 1024.74 1024.51 1024.37 1024.41 1024.24 1024.07 1024.03 1023.99 1023.59 1023.15 1022.58 1022.19 1021.99 1021.70 1021.66 1021.79 1021.66 1021.47 1021.18 1020.78 1020.16 1019.37 1018.27 1017.12 1016.13 1014.93 1013.69 1012.38 1010.99 1009.32 1008.05 1007.17 1006.69 1006.17 1005.57
1023.86 1024.19 1024.57 1024.94 1025.18 1025.22 1025.29 1025.39 1025.45 1025.51 1025.47 1025.28 1024.89 1024.91 1024.69 1024.30 1024.06 1023.70 1023.24 1022.71 1022.50 1022.68 1023.02 1022.96 1022.75 1022.51 1022.26 1021.80 1021.03 1020.26 1019.24 1018.01 1016.85 1015.69 1014.47 1013.24 1011.89 1010.47 1009.10 1008.21 1007.46 1007.06 1006.58
1024.56 1025.09 1025.44 1025.69 1025.82 1025.96 1026.12 1026.32 1026.42 1026.33 1026.40 1026.36 1026.16 1025.70 1025.56 1025.17 1024.92 1024.78 1024.26 1024.33 1024.43 1024.21 1024.35 1024.03 1023.88 1023.54 1023.14 1022.57 1021.92 1021.15 1020.34 1019.29 1018.08 1016.71 1015.44 1014.24 1012.87 1011.65 1010.32 1009.37 1008.63 1007.96 1007.43
1025.32 1025.70 1025.93 1026.26 1026.48 1026.72 1026.91 1027.19 1027.25 1027.17 1027.35 1027.42 1027.45 1027.24 1026.71 1026.08 1025.90 1025.83 1025.83 1025.69 1025.45 1025.50 1025.50 1025.15 1024.86 1024.46 1023.98 1023.37 1022.65 1021.85 1020.93 1019.87 1018.79 1017.68 1016.47 1015.25 1013.92 1012.64 1011.50 1010.48 1009.63 1008.88 1008.26
1025.81 1026.24 1026.51 1026.88 1027.26 1027.45 1027.64 1028.13 1028.67 1028.15 1027.93 1028.34 1028.43 1027.93 1027.49 1027.27 1027.21 1026.90 1026.84 1026.75 1026.58 1026.53 1026.35 1026.01 1025.69 1025.26 1024.79 1024.27 1023.59 1022.71 1021.84 1020.90 1019.94 1018.88 1017.62 1016.37 1014.95 1013.63 1012.53 1011.50 1010.73 1010.03 1009.38
1026.26 1026.79 1027.11 1027.46 1027.65 1028.09 1028.42 1028.60 1028.87 1029.15 1028.94 1028.87 1028.88 1028.54 1028.23 1028.13 1028.01 1027.81 1027.65 1027.53 1027.40 1027.31 1027.12 1026.80 1026.43 1026.04 1025.67 1025.17 1024.52 1023.68 1022.79 1021.86 1020.80 1019.85 1018.77 1017.48 1016.11 1014.82 1013.59 1012.53 1011.78 1011.08 1010.49
1027.02 1027.48 1027.78 1028.07 1028.31 1028.71 1028.94 1029.23 1029.37 1029.66 1029.71 1029.57 1029.40 1029.32 1029.17 1029.11 1028.87 1028.59 1028.36 1028.11 1027.95 1027.72 1027.58 1027.34 1027.06 1026.76 1026.32 1025.83 1025.24 1024.60 1023.81 1022.95 1022.09 1021.14 1019.93 1018.56 1017.34 1016.19 1014.87 1013.78 1012.96 1012.21 1011.58
1027.79 1028.32 1028.83 1029.24 1029.37 1029.60 1029.75 1030.07 1030.00 1030.17 1030.27 1030.33 1030.17 1030.04 1029.91 1029.77 1029.58 1029.33 1029.03 1028.65 1028.41 1028.15 1027.93 1027.85 1027.61 1027.35 1026.90 1026.27 1025.60 1024.96 1024.34 1023.51 1022.54 1021.57 1020.56 1019.52 1018.47 1017.30 1016.07 1014.98 1014.17 1013.41 1012.72
1028.46 1028.89 1029.31 1029.83 1030.19 1030.31 1030.50 1030.76 1030.85 1030.86 1030.95 1030.93 1030.84 1030.70 1030.52 1030.30 1030.11 1029.95 1029.61 1029.29 1028.99 1028.73 1028.54 1028.38 1028.09 1027.79 1027.36 1026.79 1026.14 1025.36 1024.49 1023.66 1022.78 1021.89 1021.00 1020.20 1019.40 1018.40 1017.42 1016.41 1015.43 1014.43 1013.63
1029.04 1029.38 1029.82 1030.17 1030.68 1030.84 1031.08 1031.24 1031.55 1031.54 1031.58 1031.55 1031.41 1031.25 1031.09 1030.91 1030.74 1030.55 1030.31 1029.97 1029.71 1029.45 1029.18 1028.89 1028.54 1028.16 1027.74 1027.16 1026.55 1025.85 1025.00 1024.13 1023.29 1022.49 1021.72 1020.97 1020.19 1019.33 1018.45 1017.60 1016.69 1015.75 1014.98
Wind_Speed
15 13 14 15 15 12 10 8 10 10 10 11 10 11 11 10 8 7 7 6 6 5 5 5 6 5 4 4 4 3 4 3 11 10 10 11 12 11 10 11 12 12 11
15 14 14 14 14 13 13 12 11 11 11 11 10 10 9 8 7 7 6 5 5 6 6 6 6 6 6 5 6 8 8 8 10 16 14 13 15 14 13 13 10 10 10
16 15 13 14 13 13 13 11 11 11 10 10 11 10 8 7 7 6 4 5 5 5 5 6 7 7 10 9 10 9 9 9 9 10 12 10 11 10 12 11 11 10 8
16 15 14 13 13 12 12 11 10 9 10 10 8 8 7 7 8 7 7 6 6 6 6 7 8 11 12 11 10 11 10 10 10 9 9 10 9 11 9 9 9 9 10
17 15 13 12 12 11 11 10 9 10 9 8 8 7 6 9 8 9 6 6 6 7 8 8 10 14 17 14 9 11 12 10 9 8 9 9 10 9 9 8 10 9 10
15 14 12 11 11 11 10 9 10 9 8 8 8 8 10 8 16 15 10 6 6 6 7 8 7 11 13 19 20 19 15 11 11 8 9 9 11 10 9 8 9 8 6
14 13 12 10 11 9 9 10 10 8 7 8 7 7 8 8 17 17 15 6 5 5 5 6 9 9 12 13 17 17 14 15 13 10 12 11 12 11 11 12 11 10 9
14 12 10 9 10 10 10 9 8 6 7 6 7 7 7 8 18 17 14 7 6 5 6 6 9 10 13 16 14 14 13 10 10 9 9 12 11 13 12 11 12 10 8
13 11 9 9 10 9 9 8 6 6 6 6 6 8 8 6 15 17 13 6 7 7 5 5 10 12 19 20 14 14 15 14 15 16 16 16 16 17 15 6 7 7 7
10 10 10 10 9 9 8 7 5 5 6 6 7 8 11 8 13 15 13 5 7 6 6 8 13 16 18 19 12 12 14 14 15 19 19 17 16 15 16 4 6 6 6
11 11 10 9 9 7 7 5 5 6 6 6 6 7 8 8 9 15 15 5 4 5 7 8 9 20 18 17 15 12 13 15 14 11 11 11 12 13 10 9 5 6 6
11 11 10 8 7 7 8 7 7 6 7 6 6 6 6 8 12 15 16 13 11 5 8 7 9 18 18 15 14 19 19 15 10 11 11 11 12 12 10 9 6 4 3
11 10 9 9 8 7 8 7 7 7 7 6 5 6 6 6 7 16 14 13 12 6 6 11 15 14 16 13 20 21 18 12 11 11 10 10 12 11 10 10 8 6 4
11 9 7 8 9 8 7 6 6 6 5 5 6 6 4 5 7 8 8 7 9 7 10 8 11 12 14 15 15 14 10 11 10 10 11 11 12 9 10 9 6 9 4
9 9 8 6 6 6 5 4 4 3 3 3 4 3 4 6 7 8 9 8 8 7 7 7 9 11 12 13 12 12 11 12 13 12 10 13 12 10 10 9 8 7 7
9 6 5 5 4 4 4 4 5 5 6 7 7 6 4 10 13 12 12 15 17 13 8 9 10 10 10 11 12 12 11 15 12 12 11 11 12 12 9 10 8 8 8
8 6 5 6 5 4 4 4 5 5 8 9 9 9 9 9 13 14 14 12 15 11 10 9 10 10 10 10 10 10 11 11 13 11 11 11 12 12 13 8 10 9 8
7 11 5 5 4 5 5 5 5 4 4 5 8 10 13 14 17 16 15 8 12 13 9 10 9 10 9 9 10 10 11 11 11 11 12 12 12 12 12 12 10 9 8
6 5 5 4 5 6 5 5 5 5 5 4 5 8 10 13 14 16 17 10 9 10 9 9 9 9 9 9 10 10 10 10 11 11 11 11 12 11 12 11 10 10 9
6 10 6 4 4 4 4 5 5 6 6 5 6 5 5 7 8 8 9 8 9 8 8 8 9 9 9 10 10 10 10 11 12 12 12 11 12 11 11 12 11 10 9
5 4 8 5 5 5 5 5 5 5 5 5 4 6 7 6 5 7 6 8 8 8 8 8 8 9 9 9 10 11 11 11 11 12 12 12 12 12 11 11 10 10 10
6 5 5 5 5 6 5 5 5 5 5 5 4 7 9 7 5 5 6 6 6 6 6 7 8 8 8 9 10 11 12 12 12 12 12 12 12 12 11 11 12 10 10
6 7 6 5 5 7 6 5 5 5 5 5 5 5 5 5 5 5 6 5 5 6 6 7 8 8 8 9 9 9 11 12 12 11 11 11 11 12 11 11 12 12 11
6 6 6 5 5 5 5 5 5 6 5 5 5 5 5 4 5 6 5 6 6 6 6 5 7 10 9 10 10 10 9 11 10 10 13 10 11 13 11 11 12 13 10
6 6 5 5 5 5 5 5 5 5 5 4 4 4 4 5 5 6 5 6 6 6 7 8 6 11 12 14 15 17 17 19 15 15 9 11 12 14 11 10 13 12 14
6 6 5 5 5 5 4 5 4 4 4 4 4 4 4 4 4 5 5 6 6 6 8 7 10 13 14 11 15 18 18 19 18 19 11 10 10 10 10 12 15 11 13
Wind_Direction
95 94 98 91 92 101 105 98 79 77 79 82 78 71 59 51 40 39 29 21 17 352 342 339 327 305 301 288 292 277 271 273 296 306 307 309 298 293 294 293 293 295 298
98 101 91 93 87 82 79 74 74 78 72 75 74 71 62 48 36 37 26 3 1 356 343 334 307 329 312 315 341 328 327 315 308 307 302 305 302 313 300 296 295 293 294
94 87 82 87 87 85 82 78 76 83 80 73 69 63 55 44 31 26 13 4 354 343 326 320 323 330 2 358 343 329 316 310 307 296 298 303 300 308 306 303 300 294 295
89 88 85 83 83 82 80 76 79 81 77 71 67 66 54 45 33 15 13 1 357 343 334 345 340 24 6 350 328 322 319 311 301 296 298 301 305 307 299 310 309 308 303
89 85 84 85 85 84 79 76 75 74 74 72 69 53 42 43 24 11 0 1 357 355 353 1 4 8 354 336 326 318 316 307 304 303 304 304 306 313 315 313 303 303 297
88 87 88 81 82 79 80 78 73 72 76 72 57 53 40 36 15 20 22 9 3 11 7 5 348 359 343 342 337 328 318 308 304 307 302 298 295 305 302 305 300 306 307
90 87 81 81 80 77 74 68 62 63 74 62 47 45 47 28 14 16 18 8 5 355 355 353 359 353 354 346 337 332 321 324 311 302 294 296 299 298 298 296 292 290 290
86 83 81 85 83 72 68 64 58 57 70 60 50 38 39 26 18 11 4 358 339 344 7 352 5 354 357 354 336 334 336 334 332 319 293 291 290 292 287 282 285 282 283
84 83 81 76 73 69 70 62 48 56 54 68 58 44 35 15 16 9 1 340 357 348 347 335 13 1 354 352 346 336 340 332 329 328 326 312 302 298 298 305 332 323 315
77 73 69 66 69 66 61 60 50 52 50 54 48 41 28 11 8 2 5 354 357 348 340 8 11 2 353 352 345 343 338 333 331 336 340 342 344 336 332 347 322 330 327
83 80 74 70 69 66 68 53 57 57 56 39 42 30 23 10 356 3 6 6 345 336 358 1 0 352 347 350 343 354 330 312 332 336 335 337 340 340 332 339 325 333 334
82 77 69 61 69 63 71 58 54 54 57 36 30 30 14 5 4 5 9 16 11 11 2 355 347 342 343 349 352 349 346 345 353 347 345 343 341 336 332 335 324 315 327
84 77 75 74 68 58 64 56 61 51 52 37 33 28 8 4 0 6 1 8 9 17 359 352 344 343 359 6 358 0 358 360 350 346 343 337 333 325 346 344 346 319 305
94 86 80 80 76 68 67 55 64 49 52 47 40 25 354 1 11 8 1 353 3 11 357 358 0 6 17 9 6 1 1 356 348 341 339 333 335 348 358 350 347 350 336
95 90 84 79 75 73 64 68 63 55 73 59 35 14 20 21 4 358 360 13 13 0 10 10 11 13 9 3 360 356 352 356 357 347 341 340 341 339 4 356 358 352 5
101 98 95 92 78 65 62 59 59 71 46 49 60 60 18 32 14 12 14 29 20 6 33 23 17 11 6 358 355 348 350 353 349 343 342 342 342 346 349 6 2 2 359
106 101 92 82 71 65 51 50 60 26 65 50 20 22 20 1 8 10 14 32 33 27 37 22 19 10 0 354 352 348 342 343 339 344 342 342 342 345 354 9 6 5 6
87 88 80 74 72 60 57 55 51 48 36 15 3 21 23 30 33 28 18 23 34 32 27 18 12 7 358 352 350 348 341 342 347 346 346 345 345 347 357 2 8 7 3
89 82 80 74 65 68 63 59 59 56 48 35 10 13 10 24 36 36 35 45 35 32 18 17 9 4 357 352 347 344 342 341 342 344 347 346 343 349 358 359 358 4 5
95 111 91 81 72 71 63 62 55 55 47 38 35 4 350 29 33 39 37 39 39 32 17 13 7 2 359 354 348 346 345 349 350 350 345 344 344 353 351 358 359 4 3
98 86 99 74 67 67 74 69 45 54 68 49 28 23 24 48 30 40 42 36 34 30 19 14 8 5 360 355 351 350 350 347 349 345 344 343 344 349 344 1 2 3 8
91 88 88 92 89 81 74 75 73 62 54 57 21 26 30 40 30 29 41 39 37 29 22 16 11 6 0 356 351 352 354 351 347 345 340 338 343 346 345 3 5 6 7
96 95 85 76 85 89 74 64 70 64 54 47 42 38 29 28 24 22 27 32 31 29 23 21 16 7 2 357 354 355 356 352 341 331 333 337 343 347 350 356 5 5 5
79 79 81 71 69 71 75 71 70 64 64 52 47 42 35 26 22 18 18 20 21 22 20 22 15 12 359 1 359 357 352 351 343 338 338 342 344 346 352 0 359 5 7
92 90 86 87 82 83 82 72 67 64 58 52 47 39 25 31 26 20 12 13 14 18 18 12 14 11 5 360 0 356 354 356 358 353 348 350 351 355 353 357 357 360 9
87 91 92 96 95 95 91 90 81 73 68 50 44 44 42 35 25 19 9 11 14 12 12 10 6 10 7 4 360 357 356 357 358 355 354 357 358 357 358 1 359 4 3